Regional Weather Roundup
Issued by NWS

Home | Current Version | Previous Version | Text Only | Print | Product List | Glossary On
Versions: 1 2 3 4 5 6 7 8 9 10 11 12 13 14 15 16 17 18 19 20 21 22 23 24 25 26 27 28 29 30 31 32 33 34 35 36 37 38 39 40 41 42 43 44 45 46 47 48 49 50
000
ASUS43 KBIS 250810
RWRND

NORTH DAKOTA REGIONAL WEATHER ROUNDUP
NATIONAL WEATHER SERVICE BISMARCK ND
300 AM CDT FRI APR 25 2014

NOTE: "FAIR" INDICATES FEW OR NO CLOUDS BELOW 12,000 FEET WITH NO
SIGNIFICANT WEATHER AND/OR OBSTRUCTIONS TO VISIBILITY.


NDZ001>003-009>011-017-250900-
NORTHWEST NORTH DAKOTA

CITY           SKY/WX    TMP DP  RH WIND       PRES   REMARKS
WILLISTON      PTCLDY    34  28  79 CALM      29.71S
MINOT          CLEAR     39  30  70 SW8       29.69F
MINOT AFB      CLEAR     32  31  98 W6        29.69S
$$

NDZ018>021-031>035-040>046-250900-
SOUTHWEST NORTH DAKOTA

CITY           SKY/WX    TMP DP  RH WIND       PRES   REMARKS
BISMARCK       MOCLDY    31  26  82 CALM      29.76S
DICKINSON      PTCLDY    37  29  72 W9        29.73S
GARRISON         N/A     36  27  69 CALM      29.72S
HETTINGER ARPT CLEAR     35  25  66 CALM      29.78S
$$

NDZ004>008-012>016-024-026-027-054-250900-
NORTHEAST NORTH DAKOTA

CITY           SKY/WX    TMP DP  RH WIND       PRES   REMARKS
GRAND FORKS    FOG       37  37 100 N3        29.72S VSB 3/4
GRND FRKS AFB  CLOUDY    39  39 100 W5        29.73S FOG
DEVILS LAKE    CLOUDY    34  30  86 SW3       29.71F VSB<1/4
$$

NDZ022-023-025-028>030-036>039-047>053-250900-
SOUTHEAST NORTH DAKOTA

CITY           SKY/WX    TMP DP  RH WIND       PRES   REMARKS
FARGO          CLOUDY    41  40  96 NW6       29.72S FOG
JAMESTOWN      CLEAR     36  33  89 W3        29.72S
$$




USA.gov is the U.S. government's official web portal to all federal, state and local government web resources and services.